Overview Statistics Trail Chart Weather Telemetry Raw packets
 

This is the latest recevied weather packets stored in our database for station/object SV1JSO-13. If no packets are shown the sender has not sent any weather packets the latest 10 day(s).

<< 3 4 5 6 7 8 9 >>
Time Temp. Humidity Pressure Rain* Wind** Luminosity Snow
1788632401 30° C 25% 1010.3 hPa 0 mm - 0 W/m² -
1788632101 30° C 25% 1010.2 hPa 0 mm - 0 W/m² -
1788631801 30.56° C 25% 1010.1 hPa 0 mm - 0 W/m² -
1788631501 30.56° C 25% 1010.1 hPa 0 mm - 0 W/m² -
1788631201 30.56° C 25% 1010.1 hPa 0 mm - 0 W/m² -
1788630901 30.56° C 26% 1010 hPa 0 mm - 0 W/m² -
1788630601 30.56° C 26% 1010 hPa 0 mm - 0 W/m² -
1788630301 30.56° C 26% 1010 hPa 0 mm - 0 W/m² -
1788630001 30.56° C 26% 1010 hPa 0 mm - 0 W/m² -
1788629701 30.56° C 26% 1010 hPa 0 mm - 0 W/m² -
1788629401 30.56° C 26% 1010 hPa 0 mm - 0 W/m² -
1788629101 30.56° C 26% 1009.9 hPa 0 mm - 0 W/m² -
1788628801 30.56° C 27% 1009.7 hPa 0 mm - 0 W/m² -
1788628501 30.56° C 27% 1009.7 hPa 0 mm - 0 W/m² -
1788628201 30.56° C 27% 1009.6 hPa 0 mm - 0 W/m² -
1788627901 30.56° C 27% 1009.5 hPa 0 mm - 0 W/m² -
1788627601 30.56° C 27% 1009.7 hPa 0 mm - 1 W/m² -
1788627301 30.56° C 27% 1009.6 hPa 0 mm - 2 W/m² -
1788627001 31.11° C 27% 1009.5 hPa 0 mm - 4 W/m² -
1788626701 31.11° C 28% 1009.6 hPa 0 mm - 6 W/m² -
1788626401 31.11° C 29% 1009.6 hPa 0 mm - 10 W/m² -
1788626101 31.11° C 28% 1009.6 hPa 0 mm - 15 W/m² -
1788625801 31.67° C 26% 1009.5 hPa 0 mm - 20 W/m² -
1788625501 31.67° C 26% 1009.5 hPa 0 mm - 26 W/m² -
1788625201 31.67° C 25% 1009.7 hPa 0 mm - 33 W/m² -

* Rain latest hour (hover to see other rain measurements)
** Current wind speed in m/s (hover to see current wind gust speed)